Weather History for Williams, AZ

Change the Weather History Date:

Friday, November 15, 2013

  Actual Average (KFLG) Record (KFLG)
Temperature  
Mean Temperature 45 °F 37 °F  
Max Temperature 53 °F 51 °F 70 °F (1975)
Min Temperature 37 °F 23 °F 2 °F (1985)
Degree Days  
Heating Degree Days 20 28  
Month to date heating degree days 385  
Since 1 July heating degree days 1268  
Cooling Degree Days 0 0  
Month to date cooling degree days 0  
Year to date cooling degree days 117  
Moisture  
Dew Point 32 °F    
Average Humidity 56    
Maximum Humidity 87    
Minimum Humidity 43    
Precipitation  
Precipitation 0.00 in 0.06 in 1.25 in (1991)
Month to date precipitation 0.84  
Year to date precipitation 19.07  
Snow  
Snow 0.00 in 0.30 in 11.80 in (1991)
Month to date snowfall 3.7  
Since 1 July snowfall 5.2  
Snow Depth -    
Sea Level Pressure  
Sea Level Pressure 29.88 in    
Wind  
Wind Speed 13 mph (South)    
Max Wind Speed 24 mph    
Max Gust Speed 34 mph    
Visibility 10 miles    
Events      
T = Trace of Precipitation, MM = Missing Value Source: NWS Daily Summary

Daily Weather History Graph

Daily Weather History Graph

Search for Another Location

Airport:

Trip Planner

Search our weather history database for the weather conditions in past years. The results will help you decide how hot, cold, wet, or windy it might be!

Date:

Astronomy

Nov. 15, 2013 Rise Set
Actual Time 7:04 AM MST 5:22 PM MST
Civil Twilight 6:37 AM MST 5:49 PM MST
Nautical Twilight 6:06 AM MST 6:20 PM MST
Astronomical Twilight 5:36 AM MST 6:50 PM MST
Moon 4:18 PM MST (11/15) 5:07 AM MST (11/15)
Length of Visible Light 11h 12m
Length of Day
10h 18m
Waxing Gibbous, 97% of the Moon is Illuminated
Nov 15
Waxing Gibbous
Nov 17
Full
Nov 25
Last Quarter
Dec 2
New
Dec 9
First Quarter

Hourly Weather History & Observations

Time (MST) Temp. Windchill Dew Point Humidity Pressure Visibility Wind Dir Wind Speed Gust Speed Precip Events Conditions
12:15 AM 46.4 °F 41.5 °F 32.0 °F 57% 30.03 in 10.0 mi South 10.4 mph - N/A   Clear
12:35 AM 46.4 °F 41.1 °F 30.2 °F 53% 30.02 in 10.0 mi South 11.5 mph - N/A   Clear
12:55 AM 46.4 °F 41.5 °F 28.4 °F 50% 30.01 in 10.0 mi South 10.4 mph - N/A   Clear
1:15 AM 46.4 °F 40.4 °F 26.6 °F 46% 30.00 in 10.0 mi South 13.8 mph 18.4 mph N/A   Clear
1:35 AM 46.4 °F 41.1 °F 28.4 °F 50% 30.00 in 10.0 mi South 11.5 mph 18.4 mph N/A   Clear
1:55 AM 48.2 °F - 28.4 °F 46% 29.99 in 10.0 mi SSW 15.0 mph 20.7 mph N/A   Clear
2:15 AM 46.4 °F 41.5 °F 30.2 °F 53% 29.99 in 10.0 mi South 10.4 mph 16.1 mph N/A   Clear
2:35 AM 46.4 °F 40.4 °F 32.0 °F 57% 29.99 in 10.0 mi South 13.8 mph 18.4 mph N/A   Clear
2:55 AM 46.4 °F 41.1 °F 32.0 °F 57% 29.98 in 10.0 mi South 11.5 mph - N/A   Clear
3:15 AM 46.4 °F 40.4 °F 32.0 °F 57% 29.97 in 10.0 mi South 13.8 mph 20.7 mph N/A   Clear
3:35 AM 46.4 °F 43.5 °F 28.4 °F 50% 29.97 in 10.0 mi SE 5.8 mph - N/A   Clear
3:55 AM 41.0 °F 37.1 °F 32.0 °F 70% 29.96 in 10.0 mi SSE 5.8 mph - N/A   Clear
4:15 AM 41.0 °F 36.4 °F 30.2 °F 65% 29.94 in 10.0 mi SE 6.9 mph - N/A   Clear
4:35 AM 41.0 °F 36.4 °F 30.2 °F 65% 29.94 in 10.0 mi SSE 6.9 mph - N/A   Clear
4:55 AM 46.4 °F 40.7 °F 28.4 °F 50% 29.94 in 10.0 mi SSE 12.7 mph 18.4 mph N/A   Clear
5:15 AM 46.4 °F 41.9 °F 28.4 °F 50% 29.94 in 10.0 mi South 9.2 mph - N/A   Clear
5:35 AM 46.4 °F 41.5 °F 24.8 °F 43% 29.93 in 10.0 mi South 10.4 mph - N/A   Clear
5:55 AM 48.2 °F - 26.6 °F 43% 29.93 in 10.0 mi South 13.8 mph 21.9 mph N/A   Clear
6:15 AM 46.4 °F 40.4 °F 26.6 °F 46% 29.92 in 10.0 mi South 13.8 mph 21.9 mph N/A   Clear
6:35 AM 46.4 °F 39.8 °F 28.4 °F 50% 29.92 in 10.0 mi South 16.1 mph 21.9 mph N/A   Clear
6:55 AM 46.4 °F 40.1 °F 28.4 °F 50% 29.92 in 10.0 mi South 15.0 mph 21.9 mph N/A   Clear
7:15 AM 46.4 °F 40.1 °F 30.2 °F 53% 29.92 in 10.0 mi South 15.0 mph 21.9 mph N/A   Clear
7:35 AM 46.4 °F 40.1 °F 32.0 °F 57% 29.93 in 10.0 mi South 15.0 mph 21.9 mph N/A   Clear
7:55 AM 46.4 °F 40.4 °F 32.0 °F 57% 29.93 in 10.0 mi South 13.8 mph 23.0 mph N/A   Clear
8:15 AM 46.4 °F 39.5 °F 32.0 °F 57% 29.92 in 10.0 mi South 17.3 mph 24.2 mph N/A   Clear
8:35 AM 48.2 °F - 32.0 °F 54% 29.92 in 10.0 mi SSE 18.4 mph 24.2 mph N/A   Clear
8:55 AM 48.2 °F - 32.0 °F 54% 29.92 in 10.0 mi South 15.0 mph 18.4 mph N/A   Clear
9:15 AM 50.0 °F - 32.0 °F 50% 29.92 in 10.0 mi South 15.0 mph 23.0 mph N/A   Clear
9:35 AM 51.8 °F - 32.0 °F 47% 29.91 in 10.0 mi South 19.6 mph 26.5 mph N/A   Clear
9:55 AM 51.8 °F - 32.0 °F 47% 29.90 in 10.0 mi South 19.6 mph 28.8 mph N/A   Clear
10:15 AM 53.6 °F - 32.0 °F 44% 29.90 in 10.0 mi South 19.6 mph 28.8 mph N/A   Clear
10:35 AM 53.6 °F - 32.0 °F 44% 29.89 in 10.0 mi South 18.4 mph 34.5 mph N/A   Clear
10:55 AM 53.6 °F - 32.0 °F 44% 29.89 in 10.0 mi South 23.0 mph 32.2 mph N/A   Clear
11:15 AM 53.6 °F - 32.0 °F 44% 29.88 in 10.0 mi South 24.2 mph 33.4 mph N/A   Clear
11:35 AM 53.6 °F - 32.0 °F 44% 29.87 in 10.0 mi South 23.0 mph 34.5 mph N/A   Clear
11:55 AM 53.6 °F - 33.8 °F 47% 29.86 in 10.0 mi South 17.3 mph 31.1 mph N/A   Clear
12:15 PM 53.6 °F - 35.6 °F 51% 29.85 in 10.0 mi South 20.7 mph 31.1 mph N/A   Clear
12:35 PM 53.6 °F - 35.6 °F 51% 29.83 in 10.0 mi South 23.0 mph 32.2 mph N/A   Clear
12:55 PM 53.6 °F - 35.6 °F 51% 29.82 in 10.0 mi South 19.6 mph 27.6 mph N/A   Partly Cloudy
1:15 PM 53.6 °F - 33.8 °F 47% 29.82 in 10.0 mi South 21.9 mph 34.5 mph N/A   Clear
1:35 PM 53.6 °F - 35.6 °F 51% 29.82 in 10.0 mi South 23.0 mph 34.5 mph N/A   Partly Cloudy
1:55 PM 53.6 °F - 35.6 °F 51% 29.81 in 10.0 mi South 18.4 mph 29.9 mph N/A   Partly Cloudy
2:15 PM 51.8 °F - 35.6 °F 54% 29.81 in 10.0 mi South 20.7 mph 25.3 mph N/A   Mostly Cloudy
2:35 PM 53.6 °F - 35.6 °F 51% 29.80 in 10.0 mi South 19.6 mph 28.8 mph N/A   Scattered Clouds
2:55 PM 53.6 °F - 35.6 °F 51% 29.80 in 10.0 mi SSW 11.5 mph 20.7 mph N/A   Scattered Clouds
3:15 PM 51.8 °F - 30.2 °F 44% 29.80 in 10.0 mi SW 20.7 mph 26.5 mph N/A   Scattered Clouds
3:35 PM 51.8 °F - 32.0 °F 47% 29.80 in 10.0 mi SW 17.3 mph 29.9 mph N/A   Partly Cloudy
3:55 PM 51.8 °F - 30.2 °F 44% 29.80 in 10.0 mi SSW 23.0 mph 29.9 mph N/A   Scattered Clouds
4:15 PM 50.0 °F - 28.4 °F 43% 29.81 in 10.0 mi SW 16.1 mph 25.3 mph N/A   Scattered Clouds
4:35 PM 50.0 °F - 32.0 °F 50% 29.80 in 10.0 mi SSW 12.7 mph 28.8 mph N/A   Scattered Clouds
4:55 PM 50.0 °F - 32.0 °F 50% 29.81 in 10.0 mi SSW 16.1 mph 27.6 mph N/A   Scattered Clouds
5:15 PM 48.2 °F - 32.0 °F 54% 29.81 in 10.0 mi SW 11.5 mph 21.9 mph N/A   Partly Cloudy
5:35 PM 48.2 °F - 32.0 °F 54% 29.82 in 10.0 mi SSW 11.5 mph - N/A   Clear
5:55 PM 48.2 °F - 32.0 °F 54% 29.82 in 10.0 mi SSW 13.8 mph 20.7 mph N/A   Mostly Cloudy
6:15 PM 48.2 °F - 32.0 °F 54% 29.81 in 10.0 mi SSW 15.0 mph 21.9 mph N/A   Scattered Clouds
6:35 PM 46.4 °F 41.5 °F 32.0 °F 57% 29.82 in 10.0 mi SSW 10.4 mph 19.6 mph N/A   Scattered Clouds
6:55 PM 46.4 °F 41.5 °F 32.0 °F 57% 29.82 in 10.0 mi South 10.4 mph 16.1 mph N/A   Mostly Cloudy
7:15 PM 46.4 °F 41.1 °F 33.8 °F 62% 29.82 in 10.0 mi SSW 11.5 mph 18.4 mph N/A   Mostly Cloudy
7:35 PM 46.4 °F 41.9 °F 32.0 °F 57% 29.83 in 10.0 mi SSW 9.2 mph - N/A   Scattered Clouds
7:55 PM 44.6 °F 38.4 °F 32.0 °F 61% 29.83 in 10.0 mi SSW 12.7 mph - N/A   Scattered Clouds
8:15 PM 44.6 °F 38.1 °F 32.0 °F 61% 29.83 in 10.0 mi South 13.8 mph 18.4 mph N/A   Scattered Clouds
8:35 PM 41.0 °F 34.3 °F 35.6 °F 81% 29.84 in 10.0 mi South 11.5 mph - N/A   Partly Cloudy
8:55 PM 41.0 °F 36.4 °F 33.8 °F 76% 29.84 in 10.0 mi South 6.9 mph - N/A   Scattered Clouds
9:15 PM 41.0 °F 35.2 °F 33.8 °F 76% 29.84 in 10.0 mi South 9.2 mph - N/A   Mostly Cloudy
9:35 PM 41.0 °F 36.4 °F 32.0 °F 70% 29.84 in 10.0 mi SSE 6.9 mph - N/A   Partly Cloudy
9:55 PM 37.4 °F 32.1 °F 32.0 °F 81% 29.85 in 10.0 mi SSE 6.9 mph - N/A   Clear
10:15 PM 37.4 °F 31.4 °F 32.0 °F 81% 29.86 in 10.0 mi SE 8.1 mph - N/A   Partly Cloudy
10:35 PM 37.4 °F 30.8 °F 33.8 °F 87% 29.86 in 10.0 mi SSE 9.2 mph - N/A   Partly Cloudy
10:55 PM 39.2 °F 32.0 °F 35.6 °F 87% 29.86 in 10.0 mi SSE 11.5 mph - N/A   Clear
11:15 PM 39.2 °F 33.0 °F 35.6 °F 87% 29.86 in 10.0 mi SSE 9.2 mph - N/A   Clear
11:35 PM 39.2 °F 33.6 °F 35.6 °F 87% 29.86 in 10.0 mi SSE 8.1 mph - N/A   Scattered Clouds
11:55 PM 39.2 °F 32.5 °F 35.6 °F 87% 29.86 in 10.0 mi SSE 10.4 mph - N/A   Mostly Cloudy